Regional Weather Roundup
Issued by NWS

Home | Current Version | Previous Version | Text Only | Print | Product List | Glossary On
Versions: 1 2 3 4 5 6 7 8 9 10 11 12 13 14 15 16 17 18 19 20 21 22 23 24 25 26 27 28 29 30 31 32 33 34 35 36 37 38 39 40 41 42 43 44 45 46 47 48 49 50
000
ASUS43 KLMK 270610
RWRKY
KENTUCKY REGIONAL WEATHER ROUNDUP
NATIONAL WEATHER SERVICE LOUISVILLE KY
100 AM EST FRI FEB 27 2015

NOTE "FAIR" INDICATES FEW OR NO CLOUDS BELOW 12,000 FEET
WITH NO SIGNIFICANT WEATHER AND/OR OBSTRUCTIONS TO VISIBILITY.

KYZ001>023-026-027-061>063-070>075-270700-
WESTERN AND SOUTH CENTRAL KENTUCKY

CITY           SKY/WX    TMP DP  RH WIND       PRES   REMARKS
PADUCAH        CLOUDY    20  11  68 N9        30.45R WCI   9
HENDERSON      CLEAR     18   9  68 N7        30.45R WCI   8
OWENSBORO      CLEAR     18  10  70 N7        30.43R WCI   9
HOPKINSVILLE   NOT AVBL
BOWLING GREEN  CLOUDY    24  13  62 N8        30.38R WCI  15
GLASGOW        CLOUDY    23  15  70 N9        30.35S WCI  13
$$

KYZ024-025-028>034-038-045-046-053-270700-
NORTH CENTRAL KENTUCKY

CITY           SKY/WX    TMP DP  RH WIND       PRES   REMARKS
LOUISVILLE/SDF FAIR      17   8  67 N6        30.40R WCI   9
LOUISVILLE/LOU CLEAR     16   7  67 N3        30.40R
FORT KNOX      NOT AVBL
$$

KYZ035>037-039>044-047>052-055>060-089>105-270700-
NORTHEAST KENTUCKY

CITY           SKY/WX    TMP DP  RH WIND       PRES   REMARKS
LEXINGTON      PTCLDY    14   7  73 N8        30.33S WCI   3
COVINGTON      CLOUDY    11   4  73 NW7       30.35R WCI   0
FRANKFORT      CLEAR     14   5  67 N5        30.35R WCI   6
$$

KYZ054-064>069-076>088-106>120-270700-
SOUTHEAST KENTUCKY

CITY           SKY/WX    TMP DP  RH WIND       PRES   REMARKS
JACKSON        CLOUDY    21  13  71 N5        30.24S WCI  15
LONDON         CLOUDY    24  16  71 N10       30.26R WCI  14
SOMERSET       LGT SNOW  21  18  86 N9        30.32R WCI  11
MIDDLESBORO    CLOUDY    30  20  68 NW3       30.24R
MONTICELLO     LGT SNOW  23  19  86 NW9       30.33R FOG     WCI  13
$$




USA.gov is the U.S. government's official web portal to all federal, state and local government web resources and services.